Sella Ronda, Italy 16 day weather forecast

Slopes altitude range 1005 m - 3250m

Number of lifts: 179 Pistes: 433km

In some cases the lift and piste totals shown are for the ski domain (e.g. Three Valleys) rather than individual resort (e.g. Courchevel)

Overview

The 16 day weather forecast is fully updated 4 times every day.

    • Thu 21 FEB 2019
    • Thu 21
    • 1C 8C
    • Fri 22 FEB 2019
    • Fri 22
    • -1C 8C
    • Sat 23 FEB 2019
    • Sat 23
    • -2C 8C
    • Sun 24 FEB 2019
    • Sun 24
    • -1C 9C
    • Mon 25 FEB 2019
    • Mon 25
    • 0C 9C
    • Tue 26 FEB 2019
    • Tue 26
    • 1C 11C
    • Wed 27 FEB 2019
    • Wed 27
    • 2C 13C
    • Thu 28 FEB 2019
    • Thu 28
    • 2C 14C
    • Fri 01 MAR 2019
    • Fri 01
    • -6C 1C
    • Sat 02 MAR 2019
    • Sat 02
    • -6C 1C
    • Sun 03 MAR 2019
    • Sun 03
    • -7C -4C
    • Mon 04 MAR 2019
    • Mon 04
    • -5C 4C
    • Tue 05 MAR 2019
    • Tue 05
    • -2C 0C
    • Wed 06 MAR 2019
    • Wed 06
    • -4C -2C
    • Thu 07 MAR 2019
    • Thu 07
    • -10C -7C
    • Fri 08 MAR 2019
    • Fri 08
    • -14C -12C

Date:

Time Type 0°C level Temp Chill Snow Cloud Speed Gust Dir Press
18:00 2300m 8°C 8_5 0cm 24% 5mph 5mph 1029mB
21:00 1425m -1°C -1_6 0cm 4% 6mph 7mph 1030mB
0:00 1296m -1°C -1_6 0cm 3% 6mph 7mph 1030mB
3:00 1252m -2°C -2_6 0cm 3% 6mph 7mph 1030mB
6:00 1283m -2°C -2_6 0cm 4% 6mph 7mph 1030mB
9:00 2197m -1°C -1_5 0cm 7% 5mph 8mph 1029mB
12:00 2227m 8°C 8_5 0cm 5% 5mph 9mph 1028mB
15:00 2131m 8°C 8_4 0cm 4% 4mph 8mph 1028mB
18:00 1973m 8°C 8_5 0cm 6% 5mph 6mph 1031mB
21:00 1280m -1°C -1_6 0cm 1% 6mph 6mph 1034mB
0:00 1228m -2°C -2_5 0cm 16% 5mph 6mph 1034mB
3:00 1191m -2°C -2_5 0cm 0% 5mph 6mph 1034mB
6:00 1154m -2°C -2_5 0cm 1% 5mph 6mph 1034mB
9:00 2300m -2°C -2_2 0cm 0% 2mph 3mph 1034mB
12:00 2322m 8°C 8_2 0cm 0% 2mph 3mph 1033mB
15:00 2401m 8°C 8_1 0cm 11% 1mph 3mph 1032mB
18:00 2361m 8°C 8_4 0cm 13% 4mph 5mph 1035mB
21:00 1393m -1°C -1_3 0cm 0% 3mph 4mph 1036mB
0:00 1342m -1°C -1_3 0cm 0% 3mph 4mph 1036mB
3:00 1329m -1°C -1_3 0cm 0% 3mph 4mph 1035mB
6:00 1340m -1°C -1_4 0cm 4% 4mph 5mph 1036mB
9:00 2467m -1°C -1_1 0cm 22% 1mph 2mph 1035mB
12:00 2519m 9°C 9_2 0cm 17% 2mph 2mph 1034mB
15:00 2717m 9°C 9_2 0cm 0% 2mph 4mph 1033mB
18:00 2747m 9°C 9_5 0cm 0% 5mph 6mph 1035mB
21:00 2572m 1°C 1_5 0cm 0% 5mph 6mph 1036mB
0:00 2532m 1°C 1_5 0cm 0% 5mph 6mph 1037mB
3:00 2419m 0°C 0_4 0cm 0% 4mph 5mph 1037mB
6:00 1808m 0°C 0_4 0cm 1% 4mph 5mph 1037mB
9:00 2381m 0°C 0_2 0cm 7% 2mph 3mph 1037mB
12:00 2445m 9°C 9_2 0cm 4% 2mph 2mph 1035mB
15:00 2530m 9°C 9_1 0cm 0% 1mph 2mph 1034mB
18:00 2543m 9°C 9_5 0cm 0% 5mph 6mph 1036mB
21:00 2595m 1°C 1_5 0cm 0% 5mph 6mph 1036mB
0:00 2743m 1°C 1_5 0cm 22% 5mph 6mph 1035mB
3:00 2864m 1°C 1_6 0cm 12% 6mph 6mph 1034mB
6:00 2908m 1°C 1_6 0cm 6% 6mph 7mph 1034mB
9:00 3105m 1°C 1_4 0cm 14% 4mph 6mph 1032mB
12:00 3103m 11°C 11_3 0cm 17% 3mph 5mph 1030mB
15:00 3175m 11°C 11_3 0cm 6% 3mph 6mph 1029mB
18:00 3244m 11°C 11_5 0cm 10% 5mph 6mph 1030mB
21:00 3251m 3°C 3_5 0cm 0% 5mph 6mph 1030mB
0:00 3243m 2°C 2_5 0cm 0% 5mph 6mph 1029mB
3:00 3282m 2°C 2_5 0cm 0% 5mph 6mph 1028mB
6:00 3278m 2°C 2_6 0cm 0% 6mph 6mph 1027mB
9:00 3288m 2°C 2_3 0cm 0% 3mph 4mph 1026mB
12:00 3285m 13°C 13_3 0cm 3% 3mph 3mph 1024mB
15:00 3329m 13°C 13_3 0cm 13% 3mph 3mph 1023mB
18:00 3345m 13°C 13_3 0cm 7% 3mph 4mph 1025mB
21:00 3320m 4°C 4_4 0cm 0% 4mph 4mph 1026mB
0:00 3297m 3°C 3_4 0cm 0% 4mph 5mph 1025mB
3:00 3193m 3°C 3_4 0cm 0% 4mph 5mph 1024mB
6:00 3125m 2°C 2_5 0cm 0% 5mph 5mph 1024mB
9:00 3119m 2°C 2_2 0cm 0% 2mph 3mph 1023mB
12:00 3120m 14°C 14_1 0cm 0% 1mph 1mph 1021mB
15:00 3080m 14°C 14_1 0cm 23% 1mph 2mph 1020mB
18:00 3042m 14°C 14_5 0cm 20% 5mph 5mph 1022mB
21:00 2954m 4°C 4_5 0cm 45% 5mph 6mph 1024mB
0:00 2866m 3°C 3_5 0cm 36% 5mph 6mph 1024mB
3:00 1651m -5°C -5_4 0cm 15% 4mph 5mph 1025mB
6:00 1524m -6°C -6_4 0cm 13% 4mph 5mph 1025mB
9:00 2263m -6°C -6_4 0cm 92% 4mph 4mph 1024mB
12:00 2504m 1°C 1_2 0cm 92% 2mph 2mph 1022mB
15:00 2516m 1°C 1_3 0cm 98% 3mph 3mph 1021mB
18:00 1875m 1°C 1_2 0cm 98% 2mph 3mph 1023mB
21:00 1774m -5°C -5_3 0cm 97% 3mph 3mph 1024mB
0:00 1697m -5°C -5_2 0cm 96% 2mph 3mph 1024mB
3:00 1687m -5°C -5_5 0cm 97% 5mph 6mph 1022mB
6:00 1588m -6°C -6_6 0cm 97% 6mph 6mph 1022mB
9:00 2266m -6°C -6_6 0cm 97% 6mph 6mph 1020mB
12:00 2501m 1°C 1_6 0cm 98% 6mph 7mph 1018mB
15:00 2539m 1°C 1_5 0cm 98% 5mph 7mph 1015mB
18:00 1949m 1°C 1_9 0cm 70% 9mph 10mph 1017mB
21:00 1915m -4°C -4_8 0cm 98% 8mph 9mph 1016mB
0:00 1934m -4°C -4_11 0cm 88% 11mph 13mph 1016mB
3:00 1801m -5°C -5_11 3cm 100% 11mph 14mph 1016mB
6:00 1541m -7°C -7_8 3cm 100% 8mph 10mph 1018mB
9:00 1570m -7°C -7_9 1cm 100% 9mph 11mph 1019mB
12:00 1830m -4°C -4_9 1cm 62% 9mph 11mph 1019mB
Morning 0.0885417mm 0 1454m -5°C -5_5 1cm 74% 5mph 6mph 1023mB
Afternoon 0mm 0 2559m 4°C 4_15 0cm 93% 15mph 20mph 1014mB
Morning 0.223958mm 0 1992m -1°C -1_7 2cm 100% 7mph 11mph 1012mB
Afternoon 0.770833mm 0.125 2148m 0°C 0_5 6cm 100% 5mph 7mph 1009mB
Morning 0.494792mm 0.375 1687m -5°C -5_8 4cm 89% 8mph 8mph 1005mB
Afternoon 0.552083mm 0.5 1779m -2°C -2_10 0cm 73% 10mph 13mph 1007mB
Morning 0.0208333mm 0 1059m -8°C -8_10 0cm 96% 10mph 13mph 1014mB
Afternoon 0.104167mm 0.0625 1045m -7°C -7_13 1cm 99% 13mph 15mph 1019mB
Morning 0.229167mm 0.75 197m -13°C -13_11 6cm 100% 11mph 15mph 1029mB
Afternoon 0.317708mm 0.3125 244m -12°C -12_14 3cm 100% 14mph 18mph 1033mB
Morning 0.114583mm 0 0m -21°C -21_4 1cm 90% 4mph 4mph 1039mB
Afternoon 0mm 0 1937m -1°C -1_3 0cm 39% 3mph 4mph 1029mB

16 day outlook at a glance

Forecast issued: 21/02/2019 18:12:37

Chat

Your comments and questions. In a resort? Let us know what it's like!


Characters left 250

For terms and conditions see Readers Comments on the Cookie and privacy policy page.